Погода в Веселом

Украина / Днепропетровская область     47°50′23″N   33°34′47″E
темп.,
°C
ветер,
м/с
пор.,
м/с
влажн.,
%
обл.,
%
осадки,
мм/ч
давл.,
гПа
погр.,
м
18 апреля, вс
вс1800:00+7всв227197 0.0 102012
03:00+7всв117199 0.0 101910
06:00+5с118012 0.0 101910
09:00+10с006299 0.0 1018408
12:00+14зюз2339100 0.0 10181555
15:00+15зюз333459 0.0 10161776
18:00+15зюз2239100 0.0 10161730
21:00+12всв3458100 0.0 1017131
19 апреля, пн
пн1900:00+11св3463100 0.0 1017149
03:00+10всв2367100 0.0 1017117
06:00+8всв3476100 0.0 1017110
09:00+11всв4463100 0.0 1017505
12:00+14всв335296 0.0 10161373
15:00+15всв224980 0.2 10151540
18:00+13св4661100 0.1 1014449
21:00+12св3763100 0.1 1014220
20 апреля, вт
вт2000:00+10св4962100 0.0 1012231
03:00+10св51162100 0.0 1008330
06:00+8св51282100 1.4 1006507
09:00+8ссв81493100 8.4 1002564
12:00+8ссв71295100 10.4 1000779
15:00+9с6994100 13.0 998611
18:00+8ссз91487100 2.5 999953
21:00+8сз91387100 3.3 10031196
21 апреля, ср
ср2100:00+8зсз81379100 0.5 1007714
03:00+6з61285100 0.5 1010494
06:00+4з4987100 0.0 1013269
09:00+8з6965100 0.0 10151019
12:00+12з5751100 0.0 10161613
15:00+13з5748100 0.0 10171927
18:00+13зюз355598 0.0 10171302
21:00+11юз2371100 0.3 101976
22 апреля, чт
чт2200:00+8юз347981 0.1 1020100
03:00+7ю348917 0.1 102069
06:00+6ю369486 0.0 1021122
09:00+10ю4783100 0.0 1022321
12:00+15ююз465867 0.0 10221189
15:00+15ююз6654100 1.3 10211408
18:00+13ю466854 0.8 1021622
21:00+10ю358155 0.8 102290